Location: Eurasberg
(48.3353°N, 11.0839°E)
Time: 15:41:29
(UTC+00:00)

Cosmos 1140 Rocket - Pass Details

Date: 18 January 2026
Orbit: 739 x 763 km, 74.1° (Epoch: 18 February)

Event Time Altitude Azimuth Distance (km) Brightness Sun altitude
Rises 04:28:26 0° 190° (S) 3,160 6.6 -24.6°
Reaches altitude 10° 04:30:47 10° 187° (S) 2,243 5.9 -24.2°
Maximum altitude 04:35:47 60° 108° (ESE) 847 3.9 -23.4°
Drops below altitude 10° 04:40:50 10° 29° (NNE) 2,270 6.2 -22.6°
Sets 04:43:13 0° 26° (NNE) 3,202 7.0 -22.2°
